Time,TemperatureF,DewpointF,PressureIn,WindDirection,WindDirectionDegrees,WindSpeedMPH,WindSpeedGustMPH,Humidity,HourlyPrecipIn,Conditions,Clouds,dailyrainin,SoftwareType,DateUTC
2013-02-09 19:32:00,38.0,27.0,30.16,East,90,5.0,7.0,64,0.00,,,0.00,,2013-02-10 00:32:00,
2013-02-09 19:42:00,38.0,27.0,30.16,East,90,5.0,7.0,64,0.00,,,0.00,,2013-02-10 00:42:00,
2013-02-09 19:52:00,37.0,27.0,30.16,East,90,2.0,3.0,66,0.00,,,0.00,,2013-02-10 00:52:00,
2013-02-09 20:01:00,37.0,27.0,30.15,ESE,112,3.0,6.0,67,0.00,,,0.00,,2013-02-10 01:01:00,
2013-02-09 20:12:00,37.0,27.0,30.15,ESE,112,3.0,6.0,67,0.00,,,0.00,,2013-02-10 01:12:00,
2013-02-09 20:21:00,36.0,26.0,30.15,East,90,2.0,4.0,68,0.00,,,0.00,,2013-02-10 01:21:00,
2013-02-09 20:31:00,36.0,27.0,30.15,East,90,2.0,4.0,69,0.00,,,0.00,,2013-02-10 01:31:00,
2013-02-09 20:42:00,36.0,27.0,30.15,East,90,2.0,4.0,69,0.00,,,0.00,,2013-02-10 01:42:00,
2013-02-09 20:52:00,36.0,27.0,30.15,SE,135,2.0,3.0,69,0.00,,,0.00,,2013-02-10 01:52:00,
2013-02-09 21:01:00,36.0,26.0,30.15,SE,135,2.0,3.0,67,0.00,,,0.00,,2013-02-10 02:01:00,
2013-02-09 21:11:00,36.0,26.0,30.15,SE,135,2.0,3.0,67,0.00,,,0.00,,2013-02-10 02:11:00,
2013-02-09 21:22:00,36.0,26.0,30.15,SE,135,3.0,4.0,66,0.00,,,0.00,,2013-02-10 02:22:00,
2013-02-09 21:31:00,36.0,26.0,30.15,ESE,112,1.0,3.0,66,0.00,,,0.00,,2013-02-10 02:31:00,
2013-02-09 21:42:00,36.0,26.0,30.15,ESE,112,1.0,3.0,66,0.00,,,0.00,,2013-02-10 02:42:00,
2013-02-09 21:52:00,36.0,26.0,30.15,SE,135,4.0,5.0,66,0.00,,,0.00,,2013-02-10 02:52:00,
2013-02-09 22:01:00,37.0,25.0,30.14,ESE,112,4.0,6.0,62,0.00,,,0.00,,2013-02-10 03:01:00,
2013-02-09 22:11:00,37.0,25.0,30.14,ESE,112,4.0,6.0,62,0.00,,,0.00,,2013-02-10 03:11:00,
2013-02-09 22:21:00,38.0,26.0,30.14,SE,135,5.0,7.0,61,0.00,,,0.00,,2013-02-10 03:21:00,
2013-02-09 22:32:00,38.0,25.0,30.13,SE,135,5.0,7.0,60,0.00,,,0.00,,2013-02-10 03:32:00,
2013-02-09 22:41:00,38.0,25.0,30.13,SE,135,5.0,7.0,60,0.00,,,0.00,,2013-02-10 03:41:00,
2013-02-09 22:52:00,38.0,25.0,30.13,SE,135,4.0,6.0,60,0.00,,,0.00,,2013-02-10 03:52:00,
2013-02-09 23:01:00,38.0,25.0,30.12,East,90,4.0,8.0,59,0.00,,,0.00,,2013-02-10 04:01:00,
2013-02-09 23:11:00,38.0,25.0,30.12,East,90,4.0,8.0,59,0.00,,,0.00,,2013-02-10 04:11:00,
2013-02-09 23:21:00,38.0,25.0,30.11,ENE,67,6.0,8.0,58,0.00,,,0.00,,2013-02-10 04:21:00,
2013-02-09 23:32:00,38.0,25.0,30.10,ESE,112,4.0,7.0,59,0.00,,,0.00,,2013-02-10 04:32:00,
2013-02-09 23:41:00,38.0,25.0,30.10,ESE,112,4.0,7.0,59,0.00,,,0.00,,2013-02-10 04:41:00,
2013-02-09 23:52:00,38.0,25.0,30.10,SE,135,5.0,8.0,59,0.00,,,0.00,,2013-02-10 04:52:00,